| time (UTC) | temp C | wind direction | speed KPH | gust KPH | rain 1hr cm | rain 24hr cm | rain mn cm | humidity % | barometer mb |
| 20260505035004 | 12 | 216 | 9.7 | 19.3 | 0.00 | 0.00 | 0.00 | 46 | 1018.0 |
| 20260505034504 | 12 | 215 | 16.1 | 22.5 | 0.00 | 0.00 | 0.00 | 46 | 1017.9 |
| 20260505034004 | 12 | 203 | 14.5 | 20.9 | 0.00 | 0.00 | 0.00 | 47 | 1018.0 |
| 20260505033504 | 12 | 204 | 11.3 | 20.9 | 0.00 | 0.00 | 0.00 | 47 | 1018.0 |
| 20260505033004 | 12 | 218 | 11.3 | 20.9 | 0.00 | 0.00 | 0.00 | 47 | 1017.8 |
| 20260505032504 | 12 | 210 | 14.5 | 22.5 | 0.00 | 0.00 | 0.00 | 47 | 1017.6 |
| 20260505032004 | 12 | 210 | 16.1 | 22.5 | 0.00 | 0.00 | 0.00 | 47 | 1017.6 |
| 20260505031504 | 12 | 218 | 14.5 | 24.1 | 0.00 | 0.00 | 0.00 | 47 | 1017.7 |
| 20260505031003 | 12 | 214 | 14.5 | 22.5 | 0.00 | 0.00 | 0.00 | 48 | 1017.7 |
| 20260505030504 | 12 | 208 | 19.3 | 25.7 | 0.00 | 0.00 | 0.00 | 49 | 1017.7 |
| 20260505030004 | 12 | 208 | 16.1 | 25.7 | 0.00 | 0.00 | 0.00 | 49 | 1017.8 |
| 20260505025504 | 12 | 222 | 16.1 | 24.1 | 0.00 | 0.00 | 0.00 | 50 | 1017.7 |
| 20260505025005 | 13 | 218 | 14.5 | 22.5 | 0.00 | 0.00 | 0.00 | 51 | 1017.6 |
| 20260505024503 | 13 | 218 | 16.1 | 24.1 | 0.00 | 0.00 | 0.00 | 52 | 1017.6 |
| 20260505024004 | 13 | 222 | 14.5 | 25.7 | 0.00 | 0.00 | 0.00 | 51 | 1017.5 |
| 20260505022503 | 13 | 222 | 11.3 | 22.5 | 0.00 | 0.00 | 0.00 | 46 | 1017.6 |
| 20260505022004 | 14 | 214 | 14.5 | 25.7 | 0.00 | 0.00 | 0.00 | 45 | 1017.7 |
| 20260505021503 | 14 | 221 | 14.5 | 25.7 | 0.00 | 0.00 | 0.00 | 44 | 1017.4 |
| 20260505021004 | 15 | 216 | 14.5 | 20.9 | 0.00 | 0.00 | 0.00 | 43 | 1017.4 |
| 20260505020504 | 15 | 223 | 11.3 | 25.7 | 0.00 | 0.00 | 0.00 | 42 | 1017.3 |
| 20260505020004 | 15 | 214 | 12.9 | 20.9 | 0.00 | 0.00 | 0.00 | 42 | 1017.5 |
| 20260505015504 | 15 | 226 | 9.7 | 20.9 | 0.00 | 0.00 | 0.00 | 41 | 1017.5 |
| 20260505015004 | 15 | 211 | 14.5 | 22.5 | 0.00 | 0.00 | 0.00 | 40 | 1017.4 |
| 20260505014004 | 16 | 226 | 11.3 | 22.5 | 0.00 | 0.00 | 0.00 | 40 | 1017.4 |
| 20260505013505 | 16 | 208 | 20.9 | 25.7 | 0.00 | 0.00 | 0.00 | 39 | 1017.3 |
| 20260505013004 | 16 | 199 | 19.3 | 29.0 | 0.00 | 0.00 | 0.00 | 39 | 1017.4 |
| 20260505012504 | 16 | 209 | 16.1 | 25.7 | 0.00 | 0.00 | 0.00 | 39 | 1017.3 |
| 20260505012004 | 16 | 205 | 14.5 | 25.7 | 0.00 | 0.00 | 0.00 | 39 | 1017.2 |
| 20260505011504 | 16 | 208 | 16.1 | 27.4 | 0.00 | 0.00 | 0.00 | 39 | 1017.4 |
| 20260505011004 | 16 | 208 | 16.1 | 33.8 | 0.00 | 0.00 | 0.00 | 38 | 1017.3 |
| 20260505010504 | 17 | 197 | 17.7 | 33.8 | 0.00 | 0.00 | 0.00 | 38 | 1017.4 |
| 20260505010005 | 17 | 212 | 20.9 | 32.2 | 0.00 | 0.00 | 0.00 | 37 | 1017.3 |
| 20260505005504 | 17 | 217 | 16.1 | 25.7 | 0.00 | 0.00 | 0.00 | 36 | 1017.2 |
| 20260505005004 | 17 | 225 | 19.3 | 27.4 | 0.00 | 0.00 | 0.00 | 36 | 1017.3 |
| 20260505004504 | 17 | 217 | 16.1 | 29.0 | 0.00 | 0.00 | 0.00 | 36 | 1017.3 |
| 20260505004004 | 18 | 207 | 19.3 | 25.7 | 0.00 | 0.00 | 0.00 | 36 | 1017.2 |
| 20260505003504 | 18 | 213 | 19.3 | 27.4 | 0.00 | 0.00 | 0.00 | 35 | 1017.3 |
| 20260505003004 | 18 | 211 | 16.1 | 29.0 | 0.00 | 0.00 | 0.00 | 35 | 1017.3 |
| 20260505002004 | 18 | 198 | 19.3 | 35.4 | 0.00 | 0.00 | 0.00 | 34 | 1017.5 |
| 20260505001003 | 18 | 206 | 17.7 | 25.7 | 0.00 | 0.00 | 0.00 | 34 | 1017.5 |
| 20260505000504 | 18 | 199 | 19.3 | 32.2 | 0.00 | 0.00 | 0.00 | 34 | 1017.5 |
| 20260505000004 | 18 | 193 | 22.5 | 32.2 | 0.00 | 0.00 | 0.00 | 35 | 1017.3 |
| 20260504235504 | 18 | 202 | 19.3 | 27.4 | 0.00 | 0.00 | 0.00 | 35 | 1017.3 |
| 20260504235004 | 18 | 212 | 14.5 | 25.7 | 0.00 | 0.00 | 0.00 | 35 | 1017.4 |
| 20260504234504 | 18 | 213 | 14.5 | 27.4 | 0.00 | 0.00 | 0.00 | 34 | 1017.4 |
| 20260504234004 | 18 | 201 | 19.3 | 32.2 | 0.00 | 0.00 | 0.00 | 34 | 1017.3 |
| 20260504233503 | 18 | 192 | 17.7 | 24.1 | 0.00 | 0.00 | 0.00 | 34 | 1017.3 |
| 20260504233005 | 19 | 189 | 19.3 | 32.2 | 0.00 | 0.00 | 0.00 | 34 | 1017.3 |
| 20260504232504 | 18 | 191 | 19.3 | 27.4 | 0.00 | 0.00 | 0.00 | 34 | 1017.3 |
| 20260504232004 | 18 | 187 | 17.7 | 27.4 | 0.00 | 0.00 | 0.00 | 33 | 1017.5 |
| 20260504231504 | 19 | 196 | 16.1 | 25.7 | 0.00 | 0.00 | 0.00 | 32 | 1017.4 |
| 20260504231004 | 19 | 196 | 14.5 | 25.7 | 0.00 | 0.00 | 0.00 | 32 | 1017.4 |
| 20260504230504 | 19 | 172 | 20.9 | 32.2 | 0.00 | 0.00 | 0.00 | 32 | 1017.5 |
| 20260504230003 | 20 | 195 | 16.1 | 25.7 | 0.00 | 0.00 | 0.00 | 32 | 1017.4 |
| 20260504225503 | 19 | 178 | 19.3 | 32.2 | 0.00 | 0.00 | 0.00 | 33 | 1017.5 |
| 20260504225004 | 19 | 183 | 17.7 | 27.4 | 0.00 | 0.00 | 0.00 | 32 | 1017.4 |
| 20260504224504 | 20 | 204 | 17.7 | 32.2 | 0.00 | 0.00 | 0.00 | 32 | 1017.4 |
| 20260504224004 | 20 | 186 | 19.3 | 27.4 | 0.00 | 0.00 | 0.00 | 32 | 1017.4 |
| 20260504223004 | 19 | 179 | 19.3 | 27.4 | 0.00 | 0.00 | 0.00 | 32 | 1017.5 |
| 20260504222504 | 19 | 183 | 22.5 | 29.0 | 0.00 | 0.00 | 0.00 | 32 | 1017.7 |
| 20260504222004 | 19 | 177 | 20.9 | 32.2 | 0.00 | 0.00 | 0.00 | 32 | 1017.8 |
| 20260504221504 | 19 | 206 | 14.5 | 22.5 | 0.00 | 0.00 | 0.00 | 33 | 1017.9 |
| 20260504221004 | 19 | 179 | 16.1 | 27.4 | 0.00 | 0.00 | 0.00 | 33 | 1017.8 |
| 20260504220504 | 19 | 201 | 19.3 | 27.4 | 0.00 | 0.00 | 0.00 | 33 | 1018.1 |
| 20260504220003 | 18 | 199 | 12.9 | 22.5 | 0.00 | 0.00 | 0.00 | 34 | 1018.1 |
| 20260504215503 | 18 | 199 | 14.5 | 32.2 | 0.00 | 0.00 | 0.00 | 34 | 1018.3 |
| 20260504215003 | 18 | 194 | 19.3 | 25.7 | 0.00 | 0.00 | 0.00 | 33 | 1018.4 |
| 20260504214503 | 18 | 189 | 14.5 | 24.1 | 0.00 | 0.00 | 0.00 | 34 | 1018.4 |
| 20260504213503 | 18 | 190 | 19.3 | 32.2 | 0.00 | 0.00 | 0.00 | 35 | 1018.4 |
| 20260504213003 | 18 | 198 | 19.3 | 29.0 | 0.00 | 0.00 | 0.00 | 34 | 1018.5 |
| 20260504212503 | 18 | 207 | 14.5 | 24.1 | 0.00 | 0.00 | 0.00 | 34 | 1018.4 |
| 20260504212003 | 18 | 182 | 14.5 | 27.4 | 0.00 | 0.00 | 0.00 | 34 | 1018.6 |
| 20260504211503 | 18 | 194 | 19.3 | 35.4 | 0.00 | 0.00 | 0.00 | 35 | 1018.6 |
| 20260504211003 | 18 | 208 | 17.7 | 29.0 | 0.00 | 0.00 | 0.00 | 35 | 1018.6 |
| 20260504204503 | 18 | 208 | 16.1 | 25.7 | 0.00 | 0.00 | 0.00 | 33 | 1018.8 |
| 20260504204003 | 18 | 167 | 16.1 | 22.5 | 0.00 | 0.00 | 0.00 | 34 | 1018.6 |
| 20260504203503 | 18 | 194 | 19.3 | 27.4 | 0.00 | 0.00 | 0.00 | 34 | 1018.6 |
| 20260504203004 | 18 | 167 | 17.7 | 32.2 | 0.00 | 0.00 | 0.00 | 35 | 1018.6 |
| 20260504202502 | 18 | 199 | 14.5 | 25.7 | 0.00 | 0.00 | 0.00 | 35 | 1019.0 |
| 20260504202004 | 18 | 175 | 20.9 | 32.2 | 0.00 | 0.00 | 0.00 | 35 | 1018.9 |
| 20260504201502 | 18 | 201 | 12.9 | 24.1 | 0.00 | 0.00 | 0.00 | 35 | 1018.9 |
| 20260504200503 | 18 | 138 | 12.9 | 19.3 | 0.00 | 0.00 | 0.00 | 35 | 1019.1 |
| 20260504195503 | 18 | 226 | 9.7 | 25.7 | 0.00 | 0.00 | 0.00 | 35 | 1019.1 |
| 20260504194503 | 18 | 219 | 9.7 | 19.3 | 0.00 | 0.00 | 0.00 | 35 | 1019.2 |
| 20260504194003 | 17 | 165 | 9.7 | 20.9 | 0.00 | 0.00 | 0.00 | 36 | 1019.3 |
| 20260504193502 | 17 | 203 | 3.2 | 11.3 | 0.00 | 0.00 | 0.00 | 32 | 1019.2 |
| 20260504193003 | 17 | 189 | 6.4 | 27.4 | 0.00 | 0.00 | 0.00 | 34 | 1019.2 |
| 20260504192502 | 17 | 154 | 9.7 | 19.3 | 0.00 | 0.00 | 0.00 | 32 | 1019.2 |
| 20260504192003 | 17 | 176 | 12.9 | 24.1 | 0.00 | 0.00 | 0.00 | 33 | 1019.0 |
| 20260504191504 | 17 | 181 | 3.2 | 22.5 | 0.00 | 0.00 | 0.00 | 35 | 1019.3 |
| 20260504191002 | 18 | 174 | 8.0 | 24.1 | 0.00 | 0.00 | 0.00 | 35 | 1019.3 |
| 20260504190503 | 18 | 134 | 6.4 | 12.9 | 0.00 | 0.00 | 0.00 | 35 | 1019.4 |
| 20260504190003 | 18 | 126 | 1.6 | 4.8 | 0.00 | 0.00 | 0.00 | 36 | 1019.5 |
| 20260504185004 | 17 | 165 | 3.2 | 14.5 | 0.00 | 0.00 | 0.00 | 36 | 1019.8 |
| 20260504184003 | 17 | 103 | 1.6 | 4.8 | 0.00 | 0.00 | 0.00 | 37 | 1019.5 |
| 20260504183503 | 17 | 132 | 3.2 | 8.0 | 0.00 | 0.00 | 0.00 | 36 | 1019.4 |
| 20260504183003 | 17 | 150 | 3.2 | 11.3 | 0.00 | 0.00 | 0.00 | 36 | 1019.2 |
| 20260504182503 | 17 | 99 | 0.0 | 4.8 | 0.00 | 0.00 | 0.00 | 37 | 1019.5 |
| 20260504182003 | 17 | 95 | 1.6 | 4.8 | 0.00 | 0.00 | 0.00 | 38 | 1019.5 |
| 20260504181503 | 17 | 138 | 0.0 | 3.2 | 0.00 | 0.00 | 0.00 | 38 | 1019.5 |
| 20260504181003 | 16 | 110 | 0.0 | 3.2 | 0.00 | 0.00 | 0.00 | 38 | 1019.5 |
| 20260504180503 | 16 | 103 | 1.6 | 4.8 | 0.00 | 0.00 | 0.00 | 39 | 1019.6 |
| 20260504180002 | 16 | 70 | 1.6 | 14.5 | 0.00 | 0.00 | 0.00 | 39 | 1019.4 |
| 20260504175502 | 16 | 90 | 1.6 | 4.8 | 0.00 | 0.00 | 0.00 | 40 | 1019.3 |
| 20260504175003 | 16 | 90 | 1.6 | 8.0 | 0.00 | 0.00 | 0.00 | 39 | 1019.3 |
| 20260504174003 | 16 | 93 | 3.2 | 4.8 | 0.00 | 0.00 | 0.00 | 40 | 1019.2 |
| 20260504173503 | 16 | 152 | 3.2 | 11.3 | 0.00 | 0.00 | 0.00 | 40 | 1019.1 |
| 20260504173004 | 16 | 109 | 0.0 | 3.2 | 0.00 | 0.00 | 0.00 | 40 | 1019.0 |
| 20260504172502 | 15 | 124 | 0.0 | 1.6 | 0.00 | 0.00 | 0.00 | 41 | 1019.3 |
| 20260504172004 | 15 | 124 | 0.0 | 8.0 | 0.00 | 0.00 | 0.00 | 42 | 1019.2 |
| 20260504170502 | 15 | 166 | 1.6 | 4.8 | 0.00 | 0.00 | 0.00 | 43 | 1019.2 |
| 20260504151004 | 12 | 109 | 0.0 | 3.2 | 0.00 | 0.00 | 0.00 | 51 | 1018.7 |
| 20260504150503 | 12 | 109 | 0.0 | 1.6 | 0.00 | 0.00 | 0.00 | 51 | 1018.6 |
| 20260504141003 | 10 | 205 | 4.8 | 4.8 | 0.00 | 0.00 | 0.00 | 57 | 1018.6 |
| 20260504140503 | 10 | 209 | 1.6 | 4.8 | 0.00 | 0.00 | 0.00 | 59 | 1018.7 |
| 20260504130502 | 8 | 187 | 0.0 | 1.6 | 0.00 | 0.00 | 0.00 | 60 | 1017.9 |
| 20260504110503 | 9 | 249 | 0.0 | 1.6 | 0.00 | 0.00 | 0.00 | 58 | 1017.4 |
| 20260504100502 | 11 | 253 | 0.0 | 0.0 | 0.00 | 0.00 | 0.00 | 55 | 1017.1 |
| 20260504082003 | 12 | 209 | 8.0 | 12.9 | 0.00 | 0.00 | 0.00 | 55 | 1018.1 |
| 20260504081004 | 12 | 207 | 9.7 | 19.3 | 0.00 | 0.00 | 0.00 | 54 | 1018.2 |
| 20260504080503 | 12 | 211 | 12.9 | 16.1 | 0.00 | 0.00 | 0.00 | 53 | 1017.8 |
| 20260504050503 | 15 | 240 | 0.0 | 4.8 | 0.00 | 0.00 | 0.00 | 44 | 1016.5 |
| 20260504045504 | 15 | 225 | 0.0 | 1.6 | 0.00 | 0.00 | 0.00 | 42 | 1016.3 |
| 20260504045003 | 15 | 236 | 0.0 | 1.6 | 0.00 | 0.00 | 0.00 | 41 | 1016.3 |
| 20260504044504 | 15 | 225 | 0.0 | 0.0 | 0.00 | 0.00 | 0.00 | 40 | 1016.3 |
| 20260504044003 | 15 | 230 | 0.0 | 0.0 | 0.00 | 0.00 | 0.00 | 41 | 1016.3 |
| 20260504042502 | 16 | 228 | 0.0 | 0.0 | 0.00 | 0.00 | 0.00 | 38 | 1016.3 |
| 20260504041503 | 16 | 237 | 0.0 | 0.0 | 0.00 | 0.00 | 0.00 | 33 | 1016.0 |
| 20260504041003 | 16 | 214 | 0.0 | 0.0 | 0.00 | 0.00 | 0.00 | 32 | 1016.0 |
| 20260504040503 | 16 | 218 | 0.0 | 0.0 | 0.00 | 0.00 | 0.00 | 32 | 1015.8 |
| 20260504035503 | 16 | 255 | 0.0 | 0.0 | 0.00 | 0.00 | 0.00 | 34 | 1016.0 |